DW0268 Weather Reports


time (UTC)temp
C
wind
direction
speed
KPH
gust
KPH
rain 1hr
cm
rain 24hr
cm
rain mn
cm
humidity
%
barometer
mb
20260504034507 17 187 12.9 22.5 0.00 0.00 0.00 66 1016.2
20260504033008 18 188 14.5 24.1 0.00 0.00 0.00 64 1016.3
20260504031605 18 201 16.1 22.5 0.00 0.00 0.00 63 1016.3
20260504030005 18 190 14.5 20.9 0.00 0.00 0.00 63 1016.3
20260504024504 18 195 12.9 24.1 0.00 0.00 0.00 62 1016.2
20260504023004 18 196 14.5 19.3 0.00 0.00 0.00 61 1016.4
20260504021503 18 198 12.9 19.3 0.00 0.00 0.00 60 1016.3
20260504020001 19 205 12.9 19.3 0.00 0.00 0.00 59 1016.2
20260504014606 19 193 14.5 22.5 0.00 0.00 0.00 58 1016.0
20260504013100 19 188 12.9 17.7 0.00 0.00 0.00 56 1016.2
20260504011558 20 196 11.3 14.5 0.00 0.00 0.00 55 1016.0
20260504010105 20 198 11.3 17.7 0.00 0.00 0.00 53 1015.8
20260504004556 20 202 16.1 29.0 0.00 0.00 0.00 51 1016.0
20260504003057 21 212 19.3 38.6 0.00 0.00 0.00 50 1016.1
20260504001554 21 215 25.7 38.6 0.00 0.00 0.00 48 1016.2
20260504000132 22 212 20.9 40.2 0.00 0.00 0.00 47 1016.3
20260503234557 22 213 25.7 40.2 0.00 0.00 0.00 46 1016.5
20260503233048 22 222 25.7 38.6 0.00 0.00 0.00 45 1016.6
20260503231547 22 211 24.1 38.6 0.00 0.00 0.00 44 1016.7
20260503230049 22 229 25.7 40.2 0.00 0.00 0.00 43 1016.9
20260503224545 22 227 30.6 38.6 0.00 0.00 0.00 41 1017.0
20260503223044 22 200 24.1 40.2 0.00 0.00 0.00 41 1017.2
20260503221550 23 219 22.5 40.2 0.00 0.00 0.00 38 1017.3
20260503220042 22 223 24.1 40.2 0.00 0.00 0.00 39 1017.6
20260503214543 22 220 25.7 37.0 0.00 0.00 0.00 38 1017.6
20260503213037 22 218 25.7 37.0 0.00 0.00 0.00 36 1017.8
20260503211534 22 223 17.7 37.0 0.00 0.00 0.00 35 1018.0
20260503210032 22 211 17.7 32.2 0.00 0.00 0.00 36 1018.3
20260503204528 22 210 29.0 38.6 0.00 0.00 0.00 35 1018.8
20260503203039 22 223 22.5 41.8 0.00 0.00 0.00 36 1019.0
20260503201532 21 213 27.4 40.2 0.00 0.00 0.00 38 1019.5
20260503200022 21 209 20.9 40.2 0.00 0.00 0.00 40 1019.6
20260503194518 21 226 25.7 40.2 0.00 0.00 0.00 43 1020.1
20260503193019 21 222 20.9 35.4 0.00 0.00 0.00 44 1020.3
20260503191514 21 242 24.1 40.2 0.00 0.00 0.00 44 1020.9
20260503190011 20 190 20.9 35.4 0.00 0.00 0.00 40 1021.2
20260503184508 20 202 19.3 41.8 0.00 0.00 0.00 44 1021.5
20260503183005 20 228 25.7 41.8 0.00 0.00 0.00 44 1021.7
20260503181505 20 253 20.9 38.6 0.00 0.00 0.00 44 1021.9
20260503180002 20 236 22.5 40.2 0.00 0.00 0.00 44 1022.1
20260503174559 19 217 22.5 46.7 0.00 0.00 0.00 44 1022.5
20260503173101 19 217 20.9 37.0 0.00 0.00 0.00 45 1022.8
20260503171559 19 212 24.1 38.6 0.00 0.00 0.00 45 1023.2
20260503081537 8 118 0.0 0.0 0.00 0.00 0.00 80 1023.3
20260503071531 8 118 3.2 4.8 0.00 0.00 0.00 79 1023.3
20260503054517 10 111 4.8 6.4 0.00 0.00 0.00 74 1023.1
20260503053017 10 112 4.8 6.4 0.00 0.00 0.00 73 1023.1
20260503051513 10 113 3.2 9.7 0.00 0.00 0.00 72 1023.1
20260503050011 10 109 4.8 9.7 0.00 0.00 0.00 72 1023.1
20260503044520 10 101 4.8 6.4 0.00 0.00 0.00 71 1022.9
20260503043011 10 97 4.8 9.7 0.00 0.00 0.00 70 1023.0
20260503041509 11 71 3.2 6.4 0.00 0.00 0.00 69 1022.9
20260503040007 11 69 4.8 8.0 0.00 0.00 0.00 68 1022.8